Weather in Bada

Russia / Zabaykalsky Krai     51°23′19″N   109°51′47″E
temp.,
°C
wind,
m/s
gust,
m/s
humid.,
%
clouds,
%
prec.,
mm/h
press.,
hPa
HPBL,
m
13 may, thu
thu1300:00+2nw118595 0.0 101113
03:00+2w1182100 0.0 101110
06:000wnw119284 0.0 101210
09:00+5nw354785 0.1 10111535
12:00+7nw4635100 0.1 10092595
15:00+8wnw5632100 0.1 10082469
18:00+7nw5730100 0.0 10092621
21:00+3nw410350 0.0 1012624
14 may, fri
fri1400:00−2wnw27588 0.0 1015182
03:00−2wnw26664 0.0 1016192
06:00−4w227646 0.0 101722
09:00+3nw35545 0.0 1016737
12:00+8nw4639100 0.0 10142211
15:00+10wnw4535100 0.1 10122643
18:00+9nw5635100 0.0 10122115
21:00+6nw224924 0.0 101520
15 may, sat
sat1500:00+1w22610 0.0 101811
03:000sw11620 0.0 101812
06:00−1ssw22740 0.0 101816
09:00+7ssw37400 0.0 1015414
12:00+14wsw57220 0.0 10121638
15:00+16w68207 0.0 10093139
18:00+12wnw7838100 0.0 10101702
21:00+4nw612675 0.1 10151095
16 may, sun
sun1600:00+2w3117095 0.0 1017480
03:00+2w6138059 0.0 10161095
06:00+2wnw51288100 0.0 1016972
09:00+5w51073100 0.0 1015921
12:00+13w61246100 0.0 10111881
15:00+13wnw51046100 0.0 10101836
18:00+13wnw7154798 0.0 10091950
21:00+8w497576 0.0 1011797
17 may, mon
mon1700:00+4w239556 0.0 101262
03:00+5w299627 0.0 1011323
06:00+4w239656 0.0 101187
09:00+9wnw487065 0.0 1009859
12:00+11wnw6861100 0.1 10081384
15:00+10wnw5862100 0.3 10081336
18:00+11nw5738100 0.0 10071660
21:00+6nw224871 0.0 101016